This demonstration page uses our WeatherBlox Daily Observations layout. Learn more.

Left ArrowRight Arrow

30.21309, -93.2044

Hourly Observations for July 1, 2019

Temp ( °F °C ) Dew Point ( °F °C ) Humidity (%) Winds ( mph kmh ) Pressure ( in mb ) Visibility ( mi km ) Precip ( " mm )
12:15 am 00:15 Clear 74 23.1 72 22.4 96 96 Calm 30.05 1018 10 16 0.00 0.00
12:35 am 00:35 Clear 74 23.1 72 22.3 95 95 Calm 30.05 1018 10 16 0.00 0.00
12:55 am 00:55 Clear 75 23.8 72 22.4 92 92 Calm 30.05 1018 10 16 0.00 0.00
1:15 am 01:15 Clear 75 24 72 22.3 90 90 Calm 30.05 1018 10 16 0.00 0.00
1:35 am 01:35 Clear 75 23.8 72 22.2 91 91 Calm 30.04 1017 10 16 0.00 0.00
1:55 am 01:55 Clear 75 23.9 72 22.2 90 90 Calm 30.04 1017 10 16 0.00 0.00
2:15 am 02:15 Clear 73 23 72 22.1 95 95 Calm 30.05 1018 10 16 0.00 0.00
2:35 am 02:35 Clear 73 23 72 22 94 94 Calm 30.04 1017 10 16 0.00 0.00
2:55 am 02:55 Clear 73 22.5 72 22 97 97 E 5 7 30.05 1018 10 16 0.00 0.00
3:15 am 03:15 Clear 72 22.3 71 21.8 97 97 Calm 30.05 1018 10 16 0.00 0.00
3:35 am 03:35 Clear 73 22.5 72 22 97 97 E 3 6 30.05 1018 10 16 0.00 0.00
3:55 am 03:55 Clear 73 22.5 72 22 97 97 Calm 30.05 1018 10 16 0.00 0.00
4:15 am 04:15 Clear 73 22.5 72 22 97 97 Calm 30.05 1018 10 16 0.01 0.25
4:35 am 04:35 Clear 73 22.5 72 22.1 98 98 NNE 3 6 30.05 1018 10 16 0.01 0.25
4:55 am 04:55 Clear 71 21.9 71 21.5 98 98 Calm 30.06 1018 5 8 0.01 0.25
5:15 am 05:15 Clear 72 22.1 71 21.9 99 99 N 5 7 30.06 1018 5 8 0.00 0.00
5:35 am 05:35 Clear 72 22.1 71 21.8 98 98 Calm 30.06 1018 10 16 0.00 0.00
6:00 am 06:00 Mostly Clear 72 22 72 22 100 100 E 10 17 30.06 1018 10 16 0.00 0.00
6:55 am 06:55 Mostly Sunny 72 22 72 22 100 100 E 10 17 30.06 1018 7 11 0.00 0.00
7:50 am 07:50 Mostly Sunny 77 25 73 23 89 89 Calm 30.07 1018 7 11 0.00 0.00
8:55 am 08:55 Mostly Sunny 81 27 75 24 84 84 Calm 30.08 1019 7 11 0.00 0.00
9:55 am 09:55 Mostly Cloudy 84 29 73 23 70 70 SSW 3 6 30.09 1019 10 16 0.00 0.00
10:55 am 10:55 Mostly Cloudy 86 30 73 23 66 66 Calm 30.08 1019 10 16 0.00 0.00
11:45 am 11:45 Mostly Cloudy 86 30 73 23 66 66 Calm 30.08 1019 10 16 0.00 0.00
12:45 pm 12:45 Mostly Cloudy 86 30 72 22 62 62 Calm 30.07 1018 10 16 0.00 0.00
1:53 pm 13:53 Mostly Cloudy 90 32 72 22 55 55 SE 5 7 30.04 1017 10 16 0.00 0.00
2:50 pm 14:50 Partly Cloudy 90 32 73 23 59 59 ESE 3 6 30.04 1017 10 16 0.00 0.00
3:50 pm 15:50 Partly Cloudy 90 32 73 23 59 59 SE 10 17 30.02 1017 10 16 0.00 0.00
4:50 pm 16:50 Partly Cloudy 90 32 72 22 55 55 ESE 9 15 30.00 1016 10 16 0.00 0.00
5:50 pm 17:50 Partly Cloudy 90 32 73 23 59 59 S 8 13 30.01 1016 10 16 0.00 0.00
6:50 pm 18:50 Partly Cloudy 86 30 73 23 66 66 S 9 15 30.02 1017 10 16 0.00 0.00
7:50 pm 19:50 Partly Cloudy 84 29 72 22 66 66 SSW 5 7 30.03 1017 10 16 0.00 0.00
8:50 pm 20:50 Mostly Clear 81 27 73 23 79 79 SE 7 11 30.03 1017 10 16 0.00 0.00
9:50 pm 21:50 Mostly Clear 81 27 73 23 79 79 ESE 6 9 30.03 1017 10 16 0.00 0.00
10:15 pm 22:15 Clear 78 25.6 74 23.5 88 88 ESE 5 7 30.03 1017 10 16 0.00 0.00
10:35 pm 22:35 Clear 79 25.9 74 23.3 86 86 ESE 7 11 30.02 1017 10 16 0.00 0.00
10:55 pm 22:55 Clear 78 25.3 74 23.4 89 89 ESE 6 9 30.02 1017 10 16 0.00 0.00
11:15 pm 23:15 Clear 78 25.3 74 23.3 89 89 ESE 7 11 30.02 1017 10 16 0.00 0.00
11:35 pm 23:35 Clear 76 24.6 74 23.3 93 93 SE 3 6 30.02 1017 10 16 0.00 0.00
11:55 pm 23:55 Clear 77 25 74 23.2 90 90 ESE 5 7 30.02 1017 10 16 0.00 0.00

Powered by AerisWeather